Retour au catalogue

STARLINK-11650

ActifCommunicationsVLEO
NORAD 63312·PAYLOAD·🇺🇸 United States

Lancé Mar 18, 2025 depuis Cape Canaveral Space Force Station

Loading…

Prochains Passages (prochaines 24 heures)

TLE

FraisSource: CelesTrak SupGP

Époque: Sep 14, 2026, 22:54 UTC

1 63312C 25057F   26257.95465278  .00016222  00000+0  12603-3 0  2576
2 63312  43.0008 203.9082 0001496 266.3721  27.5367 15.70824941    15

Suivez STARLINK-11650 en temps réel avec AllMySat

Download on the App Store